Weather Roundup
Issued by NWS Springfield, MO

Home | Current Version | Previous Version | Text Only | Print | Product List | Glossary On
Versions: 1 2 3 4 5 6 7 8 9 10 11 12 13 14 15 16 17 18 19 20 21 22 23 24 25 26 27 28 29 30 31 32 33 34 35 36 37 38 39 40 41 42 43 44 45 46 47 48 49 50
000
NZUS99 KSGF 232207
HRRSGF

HOURLY WEATHER
NATIONAL WEATHER SERVICE SPRINGFIELD MO
500 PM CDT TUE SEP 23 2014

......SGF CWA......

CITY           SKY/WX    TMP DP  RH WIND       PRES   REMARKS
SPRINGFIELD    MOSUNNY   73  45  36 SE8       30.18F
JOPLIN         SUNNY     74  47  38 SE8       30.16F
WEST PLAINS    MOSUNNY   73  41  31 E7        30.22F
ROLLA          MOSUNNY   73  45  36 E7        30.20F
OSAGE BEACH    SUNNY     75  45  33 SE6       30.20S

......SURROUNDING SGF CWA......

CITY           SKY/WX    TMP DP  RH WIND       PRES   REMARKS
CHANUTE        SUNNY     75  54  47 SE15      30.13F
PARSONS        SUNNY     76  54  46 S10G17    30.14F
COFFEYVILLE    SUNNY     77  53  43 SE12      30.12F
EMPORIA        PTSUNNY   74  55  51 S18       30.09F
GROVE OK       SUNNY     79  50  36 SE5       30.16S
ROGERS AR      SUNNY     75  45  34 S6        30.18F
SILOAM SPRINGS SUNNY     75  48  38 S6        30.17F
HARRISON AR    MOSUNNY   70  48  45 SE6       30.20F
NEAR YELLVILLE MOSUNNY   75  45  33 NE6       30.19F

......KANSAS AND MISSOURI......

CITY           SKY/WX    TMP DP  RH WIND       PRES   REMARKS
KANSAS CTY INT PTSUNNY   71  53  52 S13       30.15F
DOWNTOWN KC    MOSUNNY   74  53  48 SE12      30.14F
COLUMBIA       MOSUNNY   74  48  39 SE10      30.21S
SEDALIA        PTSUNNY   73  46  38 SE12      30.19F
ST JOSEPH      CLOUDY    70  55  59 S9        30.15S
ST LOUIS       PTSUNNY   74  48  39 SE6       30.23F
SPIRIT OF STL  PTSUNNY   71  55  56 CALM      30.22S
KIRKSVILLE     PTSUNNY   70  50  49 SE13      30.21F
WICHITA        LGT RAIN  79  51  37 S20       30.05F
TOPEKA         PTSUNNY   75  54  47 SE13      30.11F
OLATHE         MOSUNNY   73  54  51 SE12      30.15F

......TENNESSEE......

CITY           SKY/WX    TMP DP  RH WIND       PRES   REMARKS
MEMPHIS        MOSUNNY   80  44  27 NE12      30.15F
NASHVILLE      SUNNY     77  44  30 VRB7      30.20F

......ARKANSAS.......

CITY           SKY/WX    TMP DP  RH WIND       PRES   REMARKS
FAYETTEVILLE   SUNNY     74  49  41 SE7       30.17F
FT SMITH       SUNNY     78  46  32 E8        30.14F
LITTLE ROCK    MOSUNNY   79  43  27 E7        30.15F

......OKLAHOMA.......

CITY           SKY/WX    TMP DP  RH WIND       PRES   REMARKS
TULSA          MOSUNNY   79  48  33 SE14      30.12F
PONCA CITY     MOSUNNY   81  51  35 SE17G23   30.07F
MCALESTER      SUNNY     79  48  33 VRB5      30.13F
OKLAHOMA CITY  SUNNY     81  53  37 SE16      30.09F

......IOWA............

CITY           SKY/WX    TMP DP  RH WIND       PRES   REMARKS
DES MOINES     CLOUDY    71  53  52 S10       30.17F
QUAD CITIES    SUNNY     74  46  36 SE6       30.23F

......ILLINOIS........

CITY           SKY/WX    TMP DP  RH WIND       PRES   REMARKS
QUINCY         PTSUNNY   72  50  45 S6        30.23F
CHICAGO        MOSUNNY   72  46  39 CALM      30.27F



USA.gov is the U.S. government's official web portal to all federal, state and local government web resources and services.